Location: Unspecified
(42.3650°N, 71.1030°W)
Time: 16:21:20
(UTC+00:00)

S-56A Canister/Altair - Pass Details

Date: 01 July 2024
Orbit: 638 x 2487 km, 38.9° (Epoch: 20 July)

Event Time Altitude Azimuth Distance (km) Brightness Sun altitude
Rises 04:56:25 0° 281° (W) 4,656 11.6 -24.5°
Reaches altitude 10° 04:59:29 10° 273° (W) 3,917 11.1 -24.5°
Maximum altitude 05:08:56 36° 212° (SSW) 2,943 10.0 -24.4°
Enters shadow 05:10:57 35° 195° (SSW) 3,102 10.0 -24.4°
